Wind_Speed
47 48 48 49 52 55 55 53 53 53 54 53 51 50 49 47 45 44 41 38 35 33 31 29 27 25 23 21 20 18 17 15 14 13 12 12 11 9 8 7 6 4 3 2 2 2 2 1 1
46 47 49 51 54 55 54 53 54 53 53 53 53 52 51 49 47 45 42 40 37 35 33 31 29 27 25 23 22 20 18 17 16 14 13 13 12 10 9 8 7 5 4 4 3 3 3 2 2
44 45 48 51 54 54 53 53 53 53 54 54 54 54 53 51 49 46 44 42 39 37 35 33 31 29 27 25 23 22 20 19 17 16 15 14 13 12 10 9 8 7 6 5 4 4 4 3 3
42 44 48 51 52 52 53 52 54 54 55 55 56 55 54 53 50 48 46 44 41 39 37 35 33 31 29 27 25 23 21 20 19 17 16 15 14 13 12 11 9 8 7 6 5 5 5 5 5
40 43 48 50 49 50 52 53 55 55 56 56 57 57 55 54 52 49 47 45 43 41 39 37 35 33 31 29 27 25 23 22 20 19 18 16 15 15 13 12 11 9 8 7 7 7 6 6 6
38 42 46 48 47 49 51 53 53 55 56 56 58 58 57 55 53 52 50 47 45 43 41 39 37 35 32 30 28 26 25 23 21 20 19 18 17 16 15 14 12 11 10 9 8 8 7 7 7
37 40 42 44 46 48 49 52 53 54 56 57 58 59 58 57 55 53 51 48 46 44 43 41 39 37 34 32 30 28 26 24 23 22 20 19 18 17 16 15 14 13 12 11 10 9 9 8 8
34 38 40 40 44 47 48 52 53 54 57 56 57 59 60 58 57 56 53 50 48 46 44 43 40 38 36 33 32 30 27 26 24 23 22 20 19 18 18 17 16 14 13 12 11 10 10 10 9
32 36 38 38 42 45 46 50 53 53 55 56 56 58 59 60 58 56 55 52 49 48 46 44 42 40 38 35 33 31 29 27 26 25 23 22 21 20 19 18 17 16 15 14 13 12 12 11 11
31 34 35 37 38 43 45 48 50 52 53 54 55 56 58 60 59 56 54 52 50 49 48 46 44 42 40 37 35 33 31 29 28 26 25 24 22 21 20 19 18 18 17 16 15 14 13 13 13
29 31 32 35 35 38 42 45 48 51 52 53 54 54 57 58 57 55 54 52 51 51 49 48 46 44 41 39 37 35 33 31 29 28 26 25 24 23 22 21 20 19 18 17 16 16 15 15 15
27 28 30 32 33 34 38 42 45 48 47 51 53 53 54 57 57 55 54 53 54 53 50 48 47 45 42 40 39 36 34 32 31 29 28 27 26 25 23 22 22 21 20 19 18 17 17 17 17
25 26 28 30 32 34 37 40 42 46 44 48 52 51 53 55 56 54 54 54 53 54 52 51 48 46 44 42 40 38 35 34 33 31 29 28 27 26 25 24 23 22 21 21 20 19 19 19 19
22 25 26 28 30 32 36 39 39 43 44 46 49 50 52 54 55 55 54 53 51 53 54 52 50 48 46 43 41 39 37 36 34 33 31 30 29 28 26 25 24 24 23 22 22 21 21 20 20
19 22 25 27 28 30 35 37 38 40 43 45 47 49 53 54 55 55 52 53 51 51 53 52 50 49 47 45 43 41 39 38 36 34 33 32 30 29 28 27 26 25 24 24 24 23 23 22 22
16 19 22 25 26 27 33 35 36 40 42 44 46 50 52 54 55 55 53 53 51 51 52 51 50 48 48 46 45 43 42 40 38 36 35 33 32 31 30 29 28 27 26 26 25 25 25 24 24
15 16 19 22 26 25 30 32 35 39 41 43 45 49 50 53 54 54 52 52 50 50 50 50 49 48 48 47 46 45 44 43 41 39 37 35 34 33 32 30 30 29 29 28 27 27 26 26 25
14 15 16 18 23 24 28 29 32 37 40 42 44 46 48 52 54 53 52 50 50 50 50 50 50 50 48 47 46 46 46 44 42 41 39 38 36 35 33 32 31 31 30 30 30 29 28 28 27
14 15 15 17 18 21 25 28 31 35 39 42 43 44 46 49 53 53 52 51 48 49 52 51 51 51 50 48 47 47 47 46 44 43 41 40 38 37 35 34 34 33 33 32 31 30 30 30 30
12 13 13 14 15 18 22 24 29 32 36 40 42 42 46 49 53 54 52 51 50 49 52 50 51 52 51 51 49 48 47 47 46 45 44 42 40 39 37 37 36 36 35 34 32 32 32 32 32
9 11 12 13 14 15 16 19 25 29 32 36 39 41 44 48 51 53 51 49 49 50 52 50 49 51 51 51 49 49 48 49 48 46 45 43 42 41 40 39 39 38 37 36 35 35 34 34 34
6 8 9 12 13 13 14 15 19 25 29 32 36 39 42 45 47 49 50 48 49 49 49 51 50 48 48 50 48 48 47 47 46 46 47 45 44 43 42 41 40 39 39 38 37 37 37 37 36
5 7 8 10 11 12 13 14 17 21 24 29 34 37 39 42 45 48 49 49 49 50 50 50 51 50 48 50 49 49 48 47 47 48 48 48 47 46 44 42 40 40 40 40 40 40 39 38 38
3 6 7 8 9 10 12 14 16 19 22 26 32 35 38 40 44 47 47 48 49 49 48 49 51 52 50 49 49 49 47 46 47 47 47 46 46 46 45 45 43 42 41 40 40 39 39 38 37
3 4 5 6 8 9 10 13 15 16 20 23 29 33 36 39 42 45 47 47 48 48 48 49 50 50 50 50 50 49 48 48 47 47 47 46 45 44 44 44 43 42 42 41 41 40 40 38 38
2 3 3 4 5 6 8 10 13 15 17 20 25 30 34 38 39 42 44 44 45 47 48 49 49 51 50 49 50 50 49 48 48 47 47 47 47 45 45 44 43 42 42 43 41 41 40 39 38
0 2 2 2 4 4 6 8 11 14 17 20 23 27 31 35 37 40 41 42 43 45 47 50 49 50 50 49 50 49 48 48 50 48 47 48 48 47 46 45 44 43 43 43 42 42 42 40 40
2 1 1 2 2 3 4 5 8 11 14 19 22 24 27 30 33 37 40 42 43 45 46 48 48 49 48 46 47 47 47 47 48 49 49 48 48 47 47 46 46 45 44 43 43 43 42 43 40
3 2 0 1 2 2 4 5 6 8 11 15 19 21 24 28 32 36 38 40 43 44 46 45 46 47 47 45 45 44 45 46 46 48 48 48 49 49 49 47 46 45 45 45 45 45 44 43 40
4 3 2 1 2 3 5 6 8 9 10 12 15 17 20 24 28 32 35 37 39 42 43 44 43 43 43 44 43 42 42 43 44 45 46 45 46 45 46 46 46 45 45 44 44 44 43 43 41
Wind_Direction
258 255 251 246 241 240 241 239 236 232 228 226 225 224 223 223 223 223 222 221 220 219 218 219 219 221 222 221 222 223 223 223 223 223 220 218 217 218 221 225 231 237 246 247 249 246 235 232 220
256 253 249 244 240 240 241 238 235 231 228 225 224 223 222 222 222 223 222 221 220 219 219 218 219 220 221 221 221 222 223 223 224 224 222 220 220 221 222 226 230 235 242 247 247 241 238 237 233
254 249 245 243 240 239 239 236 234 231 228 225 223 222 220 220 220 221 221 221 220 220 219 218 218 219 220 220 221 222 223 224 224 224 224 222 223 224 225 227 229 234 241 246 245 241 241 243 245
252 247 242 241 240 238 235 233 231 228 226 224 223 221 220 219 218 219 219 220 220 219 219 218 218 218 219 220 221 222 224 225 225 225 225 224 224 225 227 228 230 234 242 244 241 242 245 248 251
249 245 241 240 238 235 231 229 228 225 224 223 222 221 219 218 217 217 218 218 219 219 219 218 218 218 219 220 221 222 224 225 225 225 227 226 226 226 229 230 232 234 241 243 242 243 248 251 253
247 242 240 238 237 233 230 227 226 225 222 222 222 220 219 217 216 216 217 217 218 218 219 218 218 218 219 220 221 222 223 225 225 225 226 227 227 228 230 233 234 236 240 244 245 247 249 252 253
244 240 239 237 235 231 229 226 224 223 221 220 221 219 217 215 214 214 215 215 216 217 218 218 218 218 219 219 220 221 222 223 225 225 226 226 228 230 232 235 236 237 241 245 248 250 251 253 255
244 240 237 236 234 230 226 225 221 221 220 219 219 218 216 214 213 213 214 214 215 215 216 217 217 218 218 219 220 221 221 222 224 225 226 227 228 231 233 235 236 238 240 244 248 250 251 253 257
241 240 236 234 233 229 226 224 221 219 219 218 217 217 215 214 212 210 212 213 213 214 215 215 216 217 217 218 220 220 221 222 224 225 226 227 229 231 232 234 236 238 240 244 247 249 252 254 257
242 241 236 232 232 230 226 222 219 218 218 217 216 216 214 214 212 209 209 210 211 213 213 214 216 217 217 217 219 220 221 223 224 226 227 228 229 231 232 235 237 238 241 244 246 249 252 255 257
244 241 235 230 230 228 224 220 218 217 217 216 215 213 213 212 209 207 206 207 209 211 212 213 215 216 217 217 218 220 222 223 225 226 227 229 230 232 234 236 238 240 241 244 247 250 253 255 257
242 237 231 227 228 224 221 218 218 216 216 215 214 212 211 211 209 208 205 204 207 209 212 212 214 215 216 218 219 220 222 224 226 226 228 230 231 233 235 237 239 241 242 245 248 251 253 255 257
239 234 230 225 224 221 217 215 217 215 214 213 212 211 209 208 208 207 206 204 206 208 210 212 212 214 215 218 219 220 222 224 225 227 229 231 232 234 236 237 239 241 243 246 249 251 253 256 258
239 234 228 221 223 222 219 215 216 214 212 212 212 211 209 207 208 208 206 205 206 209 209 210 211 212 214 217 219 220 222 223 225 227 229 231 233 234 236 237 239 241 243 246 249 251 253 256 259
239 232 225 222 223 222 219 217 215 214 213 213 212 210 209 209 209 208 207 208 208 209 208 209 211 212 213 215 218 221 222 223 225 227 229 231 233 234 236 238 240 242 244 247 250 252 255 257 260
235 232 227 223 223 222 221 218 213 214 214 213 212 212 210 209 209 209 209 209 210 208 209 209 210 211 212 215 218 220 221 223 224 226 229 231 234 236 237 239 241 244 246 248 251 253 256 258 260
234 230 226 224 222 221 220 218 212 213 213 213 212 212 211 210 210 210 210 209 210 211 210 208 210 210 212 214 216 219 221 223 224 226 229 232 235 237 238 240 243 245 246 249 252 254 256 258 261
230 225 222 222 223 223 221 218 213 213 213 213 211 212 214 213 211 211 211 210 210 211 209 210 212 212 213 214 216 219 222 223 225 227 229 232 235 236 239 241 244 246 248 250 252 254 257 260 262
225 221 219 220 219 223 219 217 216 216 213 213 212 214 214 215 214 213 213 214 212 212 212 213 213 214 214 216 218 219 222 225 226 228 230 233 235 237 239 242 244 247 249 251 252 254 257 260 263
218 218 217 215 219 219 219 221 219 217 214 214 216 217 217 218 217 216 216 217 217 215 214 216 215 215 215 216 218 219 222 224 226 229 231 233 235 238 241 243 245 248 250 250 252 254 258 261 263
212 216 216 215 214 217 217 216 219 219 217 216 216 216 217 218 218 218 218 220 220 219 219 221 221 220 220 219 218 220 222 225 228 231 232 233 236 239 241 244 246 248 250 251 253 256 259 262 265
198 203 208 215 218 221 222 219 217 220 222 219 218 218 219 220 221 221 221 221 222 221 222 223 224 224 224 223 223 224 225 228 230 232 233 235 237 238 241 244 247 249 251 253 256 258 261 264 265
183 189 197 208 213 221 223 227 221 220 223 221 219 219 219 221 223 223 224 224 223 225 227 227 227 227 229 228 229 230 230 230 231 233 235 236 239 240 242 245 248 250 252 254 257 259 261 264 265
172 192 196 203 215 224 223 227 224 222 223 224 222 222 221 222 225 226 226 226 226 228 230 231 230 230 232 232 232 232 231 233 234 235 236 237 239 241 243 246 249 251 253 255 258 261 262 264 265
170 187 201 211 221 224 224 229 227 228 228 228 227 226 226 225 227 227 228 228 229 231 233 234 235 234 235 235 234 234 234 235 236 238 239 240 241 243 246 248 249 253 254 256 260 262 263 264 264
173 195 207 213 212 218 229 232 231 234 236 235 233 230 229 228 229 230 230 232 233 233 235 236 238 237 238 238 238 238 239 238 238 240 243 244 246 247 249 250 252 254 255 258 261 261 263 265 267
154 207 229 240 218 220 231 234 234 238 241 242 239 234 233 232 235 235 233 234 236 236 237 238 239 239 239 242 241 240 241 243 243 244 246 245 247 248 250 252 254 256 258 260 261 262 265 265 268
11 270 238 233 231 247 256 248 243 242 243 240 240 239 237 237 238 238 237 237 238 238 240 240 241 242 242 243 243 243 244 244 244 244 246 246 247 248 249 251 254 256 258 260 261 262 263 265 268
50 58 52 213 227 242 266 273 263 255 250 245 242 242 242 242 242 241 240 240 241 240 240 242 242 243 243 244 245 247 248 248 248 247 247 249 249 249 252 253 254 256 258 260 261 261 263 264 268
32 23 5 279 255 251 257 270 273 269 260 252 248 247 247 245 245 244 243 244 244 242 241 242 242 242 243 244 246 248 249 248 249 249 249 251 251 250 251 254 255 257 259 260 260 262 264 265 268
Height
5758 5760 5762 5763 5765 5766 5771 5781 5787 5794 5801 5808 5815 5821 5827 5833 5839 5845 5849 5852 5856 5859 5862 5865 5868 5871 5873 5875 5877 5878 5879 5880 5882 5882 5883 5884 5884 5885 5885 5885 5886 5886 5886 5886 5886 5886 5886 5886 5886
5745 5747 5748 5749 5750 5753 5762 5771 5776 5785 5793 5800 5806 5812 5818 5825 5831 5836 5842 5846 5850 5854 5858 5861 5864 5867 5870 5872 5874 5875 5877 5878 5879 5880 5881 5882 5883 5883 5884 5884 5885 5885 5885 5885 5885 5885 5885 5885 5885
5731 5733 5734 5734 5736 5744 5754 5762 5769 5776 5783 5790 5796 5803 5809 5816 5823 5830 5835 5840 5845 5849 5853 5857 5860 5863 5866 5869 5871 5873 5874 5876 5877 5878 5879 5880 5881 5882 5882 5883 5883 5884 5884 5884 5884 5884 5884 5884 5884
5718 5719 5720 5723 5726 5735 5744 5752 5757 5765 5772 5779 5786 5793 5801 5809 5816 5823 5829 5834 5839 5844 5848 5852 5855 5859 5862 5865 5867 5869 5871 5873 5875 5876 5877 5878 5879 5880 5881 5881 5882 5882 5883 5883 5883 5883 5883 5883 5883
5704 5706 5707 5710 5717 5725 5732 5739 5745 5753 5762 5769 5776 5784 5793 5801 5808 5815 5822 5828 5833 5838 5843 5847 5851 5854 5858 5861 5863 5866 5868 5870 5872 5873 5875 5876 5877 5878 5879 5879 5880 5881 5881 5881 5881 5882 5882 5882 5882
5693 5694 5697 5701 5708 5715 5721 5728 5736 5743 5751 5759 5766 5775 5784 5792 5800 5807 5814 5821 5827 5832 5837 5841 5845 5849 5853 5856 5859 5862 5864 5866 5868 5870 5872 5873 5874 5875 5876 5877 5878 5879 5879 5880 5880 5880 5880 5881 5881
5683 5685 5688 5695 5700 5706 5712 5718 5725 5733 5741 5749 5756 5765 5774 5783 5791 5800 5807 5813 5820 5826 5831 5836 5840 5844 5848 5852 5855 5858 5860 5863 5865 5867 5869 5870 5871 5873 5874 5875 5876 5876 5877 5878 5878 5878 5879 5879 5879
5674 5677 5680 5686 5691 5697 5703 5708 5715 5723 5731 5739 5746 5755 5765 5774 5782 5791 5798 5806 5812 5818 5825 5830 5834 5839 5843 5847 5850 5853 5856 5859 5861 5863 5865 5867 5868 5870 5871 5872 5873 5874 5875 5875 5876 5876 5877 5877 5877
5666 5670 5672 5678 5682 5688 5694 5700 5706 5713 5721 5729 5737 5746 5756 5764 5772 5782 5790 5797 5805 5811 5818 5824 5828 5833 5838 5842 5845 5848 5851 5854 5857 5859 5861 5863 5865 5866 5868 5869 5870 5871 5872 5873 5873 5874 5874 5875 5875
5659 5662 5667 5671 5675 5680 5685 5691 5698 5705 5712 5720 5729 5738 5746 5754 5763 5773 5782 5790 5797 5804 5811 5817 5822 5827 5832 5836 5840 5843 5846 5849 5852 5855 5857 5859 5861 5863 5864 5865 5867 5868 5869 5870 5870 5871 5871 5872 5872
5653 5656 5660 5663 5668 5673 5678 5684 5690 5697 5705 5713 5721 5730 5738 5746 5755 5764 5774 5782 5790 5797 5804 5810 5816 5821 5826 5831 5834 5838 5842 5845 5848 5850 5853 5855 5857 5859 5860 5862 5863 5864 5865 5866 5867 5868 5868 5869 5869
5648 5650 5653 5657 5661 5667 5672 5678 5684 5691 5699 5706 5713 5721 5729 5738 5748 5757 5765 5773 5781 5789 5795 5802 5808 5814 5820 5825 5829 5833 5836 5840 5843 5846 5848 5851 5853 5854 5856 5858 5859 5860 5862 5863 5863 5864 5865 5865 5866
5642 5645 5648 5652 5657 5662 5667 5672 5678 5686 5692 5699 5706 5714 5722 5730 5740 5748 5757 5765 5773 5780 5787 5794 5801 5807 5813 5818 5823 5827 5831 5834 5837 5840 5843 5846 5848 5850 5851 5853 5855 5856 5857 5858 5859 5860 5861 5861 5862
5639 5641 5644 5648 5652 5656 5662 5668 5673 5680 5687 5693 5700 5707 5715 5723 5732 5740 5748 5757 5765 5771 5778 5786 5793 5799 5806 5811 5816 5820 5824 5828 5832 5835 5838 5840 5843 5845 5847 5848 5850 5851 5853 5854 5855 5856 5856 5857 5857
5635 5638 5641 5644 5648 5653 5658 5664 5669 5675 5681 5688 5695 5702 5710 5718 5726 5734 5741 5748 5756 5763 5770 5777 5785 5791 5797 5803 5809 5813 5818 5822 5826 5829 5832 5835 5837 5839 5841 5843 5845 5846 5848 5849 5850 5851 5852 5852 5853
5633 5635 5638 5642 5645 5649 5655 5660 5666 5670 5676 5683 5689 5696 5704 5711 5719 5727 5734 5741 5748 5754 5762 5769 5776 5783 5790 5796 5801 5806 5811 5815 5819 5822 5826 5829 5831 5834 5836 5838 5840 5841 5843 5844 5845 5846 5847 5847 5848
5631 5633 5635 5639 5642 5646 5651 5656 5662 5666 5671 5678 5684 5691 5698 5706 5713 5720 5727 5734 5741 5747 5755 5762 5769 5776 5782 5788 5794 5799 5804 5808 5812 5816 5819 5822 5825 5828 5830 5832 5834 5836 5837 5838 5839 5840 5841 5842 5842
5630 5632 5634 5636 5640 5643 5647 5652 5657 5661 5667 5673 5680 5686 5692 5699 5707 5713 5720 5727 5734 5740 5748 5754 5760 5767 5774 5780 5785 5791 5796 5801 5805 5808 5812 5815 5818 5821 5823 5826 5828 5829 5831 5832 5833 5834 5835 5836 5836
5628 5630 5632 5635 5638 5641 5644 5648 5653 5657 5663 5669 5675 5681 5687 5694 5700 5707 5714 5721 5727 5734 5740 5747 5753 5760 5766 5772 5778 5783 5788 5793 5797 5801 5804 5808 5811 5814 5817 5819 5821 5823 5824 5826 5827 5828 5829 5830 5830
5628 5630 5632 5634 5636 5639 5642 5645 5649 5653 5659 5664 5670 5675 5681 5688 5694 5701 5707 5715 5722 5728 5734 5739 5745 5752 5759 5765 5770 5775 5780 5785 5789 5793 5797 5800 5804 5807 5809 5811 5814 5816 5817 5818 5820 5821 5822 5823 5823
5628 5630 5632 5634 5635 5638 5641 5644 5647 5650 5655 5660 5665 5670 5675 5682 5688 5695 5701 5708 5716 5723 5728 5733 5738 5744 5751 5756 5761 5766 5771 5775 5780 5785 5789 5793 5796 5799 5801 5803 5806 5808 5809 5811 5812 5813 5814 5815 5816
5628 5630 5631 5633 5635 5637 5639 5642 5645 5648 5652 5656 5661 5666 5672 5677 5683 5689 5696 5702 5709 5716 5721 5726 5732 5737 5743 5749 5755 5759 5763 5768 5773 5777 5781 5784 5787 5790 5793 5795 5798 5800 5801 5803 5805 5806 5807 5807 5808
5629 5630 5631 5633 5634 5636 5638 5640 5644 5645 5649 5653 5658 5663 5668 5673 5678 5684 5689 5695 5702 5708 5713 5719 5725 5730 5735 5741 5747 5751 5756 5760 5764 5767 5771 5775 5779 5781 5785 5787 5789 5791 5793 5795 5796 5797 5798 5799 5800
5630 5631 5631 5632 5634 5636 5637 5639 5641 5643 5647 5651 5655 5659 5664 5668 5673 5678 5683 5688 5695 5700 5706 5712 5716 5723 5728 5732 5738 5743 5747 5751 5755 5758 5762 5766 5769 5773 5776 5779 5781 5783 5785 5786 5788 5789 5790 5791 5791
5631 5632 5632 5632 5633 5635 5636 5637 5639 5641 5644 5647 5650 5655 5659 5663 5667 5673 5677 5682 5688 5693 5698 5704 5708 5714 5719 5724 5729 5734 5738 5742 5746 5750 5754 5757 5760 5764 5768 5770 5772 5774 5775 5777 5779 5780 5781 5781 5782
5631 5632 5632 5633 5633 5634 5635 5635 5638 5639 5641 5643 5646 5650 5654 5658 5662 5666 5671 5675 5680 5686 5690 5696 5701 5706 5710 5715 5720 5725 5729 5733 5737 5741 5744 5748 5752 5755 5758 5761 5763 5764 5766 5768 5769 5770 5771 5772 5772
5631 5630 5631 5631 5632 5633 5633 5634 5636 5637 5638 5640 5643 5645 5649 5653 5657 5661 5665 5669 5673 5678 5682 5687 5692 5696 5702 5706 5711 5715 5720 5723 5727 5731 5735 5738 5741 5745 5748 5751 5753 5755 5757 5758 5759 5761 5762 5763 5763
5631 5630 5631 5631 5630 5631 5632 5632 5634 5634 5635 5637 5639 5641 5644 5648 5651 5654 5658 5662 5666 5670 5675 5679 5683 5687 5693 5697 5702 5706 5710 5713 5717 5720 5725 5728 5731 5734 5737 5740 5742 5744 5746 5748 5750 5751 5752 5753 5753
5631 5630 5629 5629 5630 5630 5630 5633 5631 5631 5632 5633 5636 5638 5640 5643 5645 5648 5651 5655 5658 5662 5666 5670 5674 5679 5684 5689 5693 5696 5700 5703 5706 5710 5713 5717 5721 5724 5726 5729 5732 5734 5736 5738 5739 5741 5742 5742 5743
5630 5629 5629 5629 5629 5629 5629 5632 5628 5629 5629 5630 5631 5633 5635 5637 5639 5641 5644 5647 5650 5654 5658 5662 5666 5671 5675 5680 5684 5687 5690 5693 5696 5699 5703 5707 5710 5713 5716 5719 5721 5724 5726 5727 5729 5730 5731 5732 5732